K5LRY-14 Weather Reports


time (UTC)temp
C
wind
direction
speed
KPH
gust
KPH
rain 1hr
cm
rain 24hr
cm
rain mn
cm
humidity
%
barometer
mb
20260906234600 35 360 3.2 12.9 0.00 0.00 0.00 19 1016.2
20260906233118 35 360 3.2 9.7 0.00 0.00 0.00 19 1016.4
20260906231603 35 0 3.2 17.7 0.00 0.00 0.00 19 1016.4
20260906230111 34 0 1.6 16.1 0.00 0.00 0.00 20 1016.5
20260906224609 34 360 4.8 17.7 0.00 0.00 0.00 20 1016.5
20260906223106 35 360 3.2 16.1 0.00 0.00 0.00 20 1016.6
20260906221601 35 360 8.0 19.3 0.00 0.00 0.00 19 1016.8
20260906220057 35 360 1.6 16.1 0.00 0.00 0.00 19 1017.2
20260906214604 35 360 3.2 12.9 0.00 0.00 0.00 19 1017.4
20260906213102 35 360 8.0 16.1 0.00 0.00 0.00 18 1017.7
20260906211602 35 360 4.8 8.0 0.00 0.00 0.00 17 1018.0
20260906210110 35 360 3.2 9.7 0.00 0.00 0.00 17 1018.2
20260906204612 35 360 3.2 12.9 0.00 0.00 0.00 18 1018.5
20260906203104 33 360 3.2 9.7 0.00 0.00 0.00 18 1018.8
20260906201610 34 360 4.8 12.9 0.00 0.00 0.00 17 1019.0
20260906200104 33 0 3.2 8.0 0.00 0.00 0.00 17 1019.1
20260906194604 33 360 0.0 17.7 0.00 0.00 0.00 18 1019.3
20260906193101 34 360 4.8 14.5 0.00 0.00 0.00 17 1019.4
20260906191600 34 360 0.0 9.7 0.00 0.00 0.00 17 1019.8
20260906190113 33 360 3.2 8.0 0.00 0.00 0.00 18 1020.2
20260906184601 32 360 1.6 12.9 0.00 0.00 0.00 20 1020.4
20260906183108 31 360 4.8 12.9 0.00 0.00 0.00 20 1020.6
20260906181605 31 360 6.4 14.5 0.00 0.00 0.00 21 1020.8
20260906180119 30 360 1.6 9.7 0.00 0.00 0.00 25 1021.0
20260906174559 30 360 3.2 14.5 0.00 0.00 0.00 26 1021.1
20260906173119 30 360 6.4 12.9 0.00 0.00 0.00 27 1021.3
20260906171603 29 360 3.2 9.7 0.00 0.00 0.00 29 1021.5
20260906170127 28 360 4.8 12.9 0.00 0.00 0.00 30 1021.6
20260906164601 27 360 4.8 9.7 0.00 0.00 0.00 30 1021.8
20260906163114 27 360 4.8 14.5 0.00 0.00 0.00 31 1021.8
20260906161606 27 360 3.2 12.9 0.00 0.00 0.00 31 1021.8
20260906154606 26 360 6.4 17.7 0.00 0.00 0.00 31 1021.6
20260906153103 26 360 11.3 19.3 0.00 0.00 0.00 31 1021.6
20260906151613 25 360 9.7 19.3 0.00 0.00 0.00 32 1021.6
20260906150108 25 360 9.7 20.9 0.00 0.00 0.00 33 1021.8
20260906144603 24 360 11.3 19.3 0.00 0.00 0.00 33 1021.7
20260906143130 23 360 3.2 8.0 0.00 0.00 0.00 35 1021.6
20260906141600 22 360 1.6 6.4 0.00 0.00 0.00 35 1021.5
20260906140109 22 360 0.0 8.0 0.00 0.00 0.00 35 1021.4
20260906134613 22 360 0.0 6.4 0.00 0.00 0.00 35 1021.3
20260906133105 21 0 0.0 6.4 0.00 0.00 0.00 36 1021.0
20260906131559 21 360 3.2 8.0 0.00 0.00 0.00 36 1021.0
20260906130113 21 360 1.6 6.4 0.00 0.00 0.00 37 1021.0
20260906124605 21 360 3.2 8.0 0.00 0.00 0.00 36 1020.8
20260906123137 21 360 3.2 14.5 0.00 0.00 0.00 35 1020.7
20260906121604 21 360 3.2 6.4 0.00 0.00 0.00 36 1020.8
20260906120112 21 0 1.6 6.4 0.00 0.00 0.00 37 1020.7
20260906114611 21 0 0.0 3.2 0.00 0.00 0.00 38 1020.8
20260906113101 22 0 0.0 3.2 0.00 0.00 0.00 38 1020.7
20260906111557 22 0 0.0 0.0 0.00 0.00 0.00 38 1020.8
20260906110105 22 0 0.0 1.6 0.00 0.00 0.00 37 1020.5
20260906104600 22 0 0.0 3.2 0.00 0.00 0.00 37 1020.5
20260906103101 23 0 0.0 3.2 0.00 0.00 0.00 35 1020.5
20260906101601 23 0 0.0 3.2 0.00 0.00 0.00 35 1020.4
20260906100100 23 0 0.0 0.0 0.00 0.00 0.00 34 1020.4
20260906094607 23 0 0.0 4.8 0.00 0.00 0.00 34 1020.2
20260906093105 23 360 1.6 6.4 0.00 0.00 0.00 34 1020.1
20260906091606 23 360 1.6 9.7 0.00 0.00 0.00 34 1020.0
20260906084559 23 360 3.2 4.8 0.00 0.00 0.00 34 1019.9
20260906083105 23 360 1.6 4.8 0.00 0.00 0.00 34 1020.1
20260906081603 23 360 1.6 6.4 0.00 0.00 0.00 34 1020.2
20260906074606 24 360 4.8 9.7 0.00 0.00 0.00 34 1020.4
20260906073104 24 360 3.2 8.0 0.00 0.00 0.00 34 1020.5
20260906071604 24 360 3.2 8.0 0.00 0.00 0.00 33 1020.5
20260906064602 25 0 0.0 8.0 0.00 0.00 0.00 33 1020.6
20260906063103 25 360 1.6 8.0 0.00 0.00 0.00 33 1020.5
20260906061604 25 0 0.0 6.4 0.00 0.00 0.00 34 1020.3
20260906060100 25 360 1.6 8.0 0.00 0.00 0.00 33 1020.3
20260906054605 25 360 4.8 9.7 0.00 0.00 0.00 33 1020.1
20260906053108 25 360 0.0 14.5 0.00 0.00 0.00 32 1020.1
20260906051605 25 360 6.4 14.5 0.00 0.00 0.00 32 1020.1
20260906050108 26 360 6.4 16.1 0.00 0.00 0.00 31 1019.9
20260906044559 26 360 6.4 16.1 0.00 0.00 0.00 31 1020.0
20260906043108 26 360 6.4 12.9 0.00 0.00 0.00 30 1019.9
20260906041603 27 360 8.0 16.1 0.00 0.00 0.00 30 1019.8
20260906040114 27 360 8.0 16.1 0.00 0.00 0.00 30 1019.9
20260906034605 27 360 6.4 12.9 0.00 0.00 0.00 29 1020.0
20260906033109 27 360 6.4 14.5 0.00 0.00 0.00 29 1019.8
20260906031603 27 360 6.4 16.1 0.00 0.00 0.00 28 1019.4
20260906024558 28 360 6.4 14.5 0.00 0.00 0.00 28 1019.1
20260906023103 28 360 4.8 12.9 0.00 0.00 0.00 28 1018.9
20260906021606 28 360 4.8 9.7 0.00 0.00 0.00 28 1018.7
20260906020107 29 360 4.8 9.7 0.00 0.00 0.00 28 1018.7
20260906014604 30 360 3.2 6.4 0.00 0.00 0.00 28 1018.5
20260906013110 30 360 1.6 14.5 0.00 0.00 0.00 28 1018.5
20260906011608 31 360 3.2 8.0 0.00 0.00 0.00 27 1018.6
20260906010100 31 360 4.8 12.9 0.00 0.00 0.00 27 1018.6
20260906004611 31 360 6.4 17.7 0.00 0.00 0.00 27 1018.5
20260906003106 32 360 6.4 17.7 0.00 0.00 0.00 26 1018.5
20260906001604 32 360 9.7 19.3 0.00 0.00 0.00 26 1018.5
20260906000107 32 360 8.0 17.7 0.00 0.00 0.00 26 1018.4